"Pseudo-MPEC" for P20MiyU

Created 2019 Feb 19 10:18:07 UT using Find_Orb

Click here for an explanation of pseudo-MPECs

 
 Astrometry: 
     P20MiyU  C2019 02 090qeAstrometry5[i.NCT.sFQSqredacted;h$#Y_hUJO(d!VNru=F52
     P20MiyU  C2019 02 09SdK[clickaYC[NhQ=m.?mb[rkc\here/dm76hTD-YYn9#)s+LJH?F52
     P20MiyU  C2019 02 09XBy%*forZwuxZ^'uSo)QVb0%!3.texplanation?ZDASV=R6GggvF52

Station data:
(F52) Pan-STARRS 2, Haleakala  (N20.707384 W156.255910)  US/Hawaii.

Orbital elements:  P20MiyU
   Perihelion 2019 Mar 5.084791 +/- 41.2 TT =  2:02:05 (JD 2458547.584791)
Epoch 2019 Feb  9.0 TT = JDT 2458523.5   Earth MOID: 0.0611   Ma: 0.0426
M 341.80398195 +/- 22               (J2000 ecliptic)          AutoNEOCP
n   0.75549828 +/- 0.382            Peri.   28.53997 +/- 70
a   1.19393420 +/- 0.403            Node   135.15771 +/- 55
e   0.1339955 +/- 0.265             Incl.   14.06313 +/- 12
P   1.30/476.50d           H 25.6   G  0.15   U 12.1  SR
q 1.03395234 +/- 0.17    Q 1.35391606 +/- 29.8
From 3 observations 2019 Feb. 9 (36.1 min); mean residual 0".18
Residuals in arcseconds: 
190209 F52  .03+  .18+    190209 F52  .05-  .35-    190209 F52  .03+  .18+    

Ephemerides (geocentric):
Date (UTC) HH   RA              Dec         delta   r     elong  mag " sig PA
---- -- -- --  -------------   -----------  ------ ------ -----  --- ---- ---
2019 02 19 10  11 38 20.686   +63 34 31.35  .08068 1.0374 125.5 22.1  39d  47
2019 02 19 11  11 38 52.836   +63 38 46.41  .08080 1.0374 125.4 22.1  39d  47
2019 02 19 12  11 39 25.042   +63 43 00.12  .08092 1.0373 125.3 22.1  39d  47
2019 02 19 13  11 39 57.301   +63 47 12.51  .08104 1.0373 125.2 22.1  39d  48
2019 02 19 14  11 40 29.614   +63 51 23.57  .08116 1.0373 125.1 22.1  39d  48
2019 02 19 15  11 41 01.981   +63 55 33.31  .08129 1.0373 125.0 22.1  39d  48
2019 02 19 16  11 41 34.402   +63 59 41.73  .08141 1.0373 124.9 22.1  39d  48
2019 02 19 17  11 42 06.875   +64 03 48.83  .08153 1.0372 124.8 22.1  39d  48
2019 02 19 18  11 42 39.400   +64 07 54.62  .08165 1.0372 124.7 22.1  39d  48
2019 02 19 19  11 43 11.978   +64 11 59.09  .08177 1.0372 124.6 22.1  39d  48
2019 02 19 20  11 43 44.608   +64 16 02.26  .08190 1.0372 124.5 22.1  39d  48
2019 02 19 21  11 44 17.289   +64 20 04.13  .08202 1.0372 124.4 22.2  39d  49
2019 02 19 22  11 44 50.022   +64 24 04.70  .08214 1.0371 124.4 22.2  39d  49
2019 02 19 23  11 45 22.805   +64 28 03.97  .08226 1.0371 124.3 22.2  39d  49
2019 02 20 00  11 45 55.639   +64 32 01.95  .08239 1.0371 124.2 22.2  39d  49
2019 02 20 01  11 46 28.523   +64 35 58.64  .08251 1.0371 124.1 22.2  39d  49
2019 02 20 02  11 47 01.457   +64 39 54.04  .08263 1.0371 124.0 22.2  39d  49
2019 02 20 03  11 47 34.440   +64 43 48.16  .08276 1.0370 123.9 22.2  39d  49
2019 02 20 04  11 48 07.472   +64 47 41.01  .08288 1.0370 123.8 22.2  39d  49
2019 02 20 05  11 48 40.553   +64 51 32.57  .08301 1.0370 123.7 22.2  39d  49
2019 02 20 06  11 49 13.682   +64 55 22.87  .08313 1.0370 123.6 22.2  39d  50
2019 02 20 07  11 49 46.859   +64 59 11.90  .08325 1.0370 123.5 22.2  39d  50
2019 02 20 08  11 50 20.084   +65 02 59.66  .08338 1.0369 123.4 22.2  39d  50
2019 02 20 09  11 50 53.355   +65 06 46.17  .08350 1.0369 123.4 22.2  39d  50
2019 02 20 10  11 51 26.673   +65 10 31.41  .08363 1.0369 123.3 22.2  39d  50
2019 02 20 11  11 52 00.038   +65 14 15.41  .08375 1.0369 123.2 22.2  39d  50
2019 02 20 12  11 52 33.448   +65 17 58.15  .08388 1.0369 123.1 22.2  39d  50
2019 02 20 13  11 53 06.904   +65 21 39.65  .08400 1.0368 123.0 22.2  39d  50
2019 02 20 14  11 53 40.405   +65 25 19.90  .08413 1.0368 122.9 22.2  39d  51
2019 02 20 15  11 54 13.951   +65 28 58.92  .08426 1.0368 122.8 22.3  39d  51
2019 02 20 16  11 54 47.541   +65 32 36.70  .08438 1.0368 122.7 22.3  39d  51
2019 02 20 17  11 55 21.174   +65 36 13.24  .08451 1.0368 122.6 22.3  38d  51
2019 02 20 18  11 55 54.851   +65 39 48.56  .08463 1.0367 122.6 22.3  38d  51
2019 02 20 19  11 56 28.572   +65 43 22.66  .08476 1.0367 122.5 22.3  38d  51
2019 02 20 20  11 57 02.334   +65 46 55.53  .08489 1.0367 122.4 22.3  38d  51
2019 02 20 21  11 57 36.139   +65 50 27.19  .08502 1.0367 122.3 22.3  38d  51
2019 02 20 22  11 58 09.985   +65 53 57.64  .08514 1.0367 122.2 22.3  38d  51
2019 02 20 23  11 58 43.873   +65 57 26.87  .08527 1.0367 122.1 22.3  38d  52
2019 02 21 00  11 59 17.801   +66 00 54.90  .08540 1.0366 122.0 22.3  38d  52
2019 02 21 01  11 59 51.770   +66 04 21.72  .08552 1.0366 122.0 22.3  38d  52
2019 02 21 02  12 00 25.779   +66 07 47.35  .08565 1.0366 121.9 22.3  38d  52
2019 02 21 03  12 00 59.827   +66 11 11.78  .08578 1.0366 121.8 22.3  38d  52
2019 02 21 04  12 01 33.914   +66 14 35.02  .08591 1.0366 121.7 22.3  38d  52
2019 02 21 05  12 02 08.039   +66 17 57.08  .08604 1.0365 121.6 22.3  38d  52
2019 02 21 06  12 02 42.203   +66 21 17.95  .08617 1.0365 121.5 22.3  38d  52
2019 02 21 07  12 03 16.404   +66 24 37.64  .08629 1.0365 121.5 22.3  38d  52
2019 02 21 08  12 03 50.642   +66 27 56.15  .08642 1.0365 121.4 22.3  38d  52
2019 02 21 09  12 04 24.917   +66 31 13.49  .08655 1.0365 121.3 22.3  38d  53